Regional Weather Roundup
Issued by NWS

Home | Current Version | Previous Version | Graphics & Text | Print | Product List | Glossary On
Versions: 1 2 3 4 5 6 7 8 9 10 11 12 13 14 15 16 17 18 19 20 21 22 23 24 25 26 27 28 29 30 31 32 33 34 35 36 37 38 39 40 41 42 43 44 45 46 47 48 49 50
000
ASUS43 KLMK 250110
RWRKY
KENTUCKY REGIONAL WEATHER ROUNDUP
NATIONAL WEATHER SERVICE LOUISVILLE KY
900 PM EDT TUE MAY 24 2016

NOTE "FAIR" INDICATES FEW OR NO CLOUDS BELOW 12,000 FEET
WITH NO SIGNIFICANT WEATHER AND/OR OBSTRUCTIONS TO VISIBILITY.

KYZ001>023-026-027-061>063-070>075-250200-
WESTERN AND SOUTH CENTRAL KENTUCKY

CITY           SKY/WX    TMP DP  RH WIND       PRES   REMARKS
PADUCAH        CLOUDY    71  64  78 SW5       30.02F
HENDERSON      CLOUDY    75  57  53 SE7       30.00F
OWENSBORO      PTCLDY    77  62  59 SE8       30.04F
HOPKINSVILLE   NOT AVBL
BOWLING GREEN  CLOUDY    76  59  55 CALM      30.07F
GLASGOW        CLOUDY    73  61  66 CALM      30.09S
$$

KYZ024-025-028>034-038-045-046-053-250200-
NORTH CENTRAL KENTUCKY

CITY           SKY/WX    TMP DP  RH WIND       PRES   REMARKS
LOUISVILLE/SDF MOCLDY    79  54  41 S6        30.05S
LOUISVILLE/LOU MOCLDY    79  54  41 S3        30.06S
FORT KNOX      NOT AVBL
$$

KYZ035>037-039>044-047>052-055>060-089>105-250200-
NORTHEAST KENTUCKY

CITY           SKY/WX    TMP DP  RH WIND       PRES   REMARKS
LEXINGTON      CLEAR     74  49  41 S6        30.11R
COVINGTON      PTCLDY    71  51  49 S3        30.08S
FRANKFORT      CLEAR     70  58  65 CALM      30.08S
$$

KYZ054-064>069-076>088-106>120-250200-
SOUTHEAST KENTUCKY

CITY           SKY/WX    TMP DP  RH WIND       PRES   REMARKS
JACKSON        CLEAR     72  48  42 CALM      30.13R
LONDON         CLEAR     70  54  56 CALM      30.13R
SOMERSET       CLEAR     70  54  56 CALM      30.13S
MIDDLESBORO    CLEAR     68  52  57 W3        30.15R
MONTICELLO     CLEAR     67  60  78 N6        30.13
$$




USA.gov is the U.S. government's official web portal to all federal, state and local government web resources and services.